Home   Weather   Hiroshima   Past weeks

Flag for Japan Past Weather in Hiroshima, Japan — Yesterday and Last 2 Weeks

Now
64 °F

Clear.


Feels Like: 64 °F
Forecast: 48 / 79 °F
Wind: 5 mph from West

Location: Iwakuni Marine Corps Air Station

Current Time: Apr 29, 2017 at 8:54:39 pm

Latest Report: Apr 29, 2017 at 7:55 pm


Visibility: N/A

Pressure: 29.81 "Hg

Humidity: 34%

Dew Point: 35 °F

Location of HiroshimaLocation

Past Weather in Hiroshima — Graph

°F

Hiroshima Temperature Yesterday

Maximum temperature yesterday: 71 °F (at 2:55 pm)
Minimum temperature yesterday: 48 °F (at 3:55 am)
Average temperature yesterday: 60 °F

High & Low Weather Summary for the Past Weeks

 TemperatureHumidityPressure
High76 °F (Apr 15, 12:55 pm)100% (Apr 16, 2:55 am)30.24 "Hg (Apr 16, 2:55 am)
Low47 °F (Apr 23, 4:55 am)13% (Apr 29, 5:55 pm)29.34 "Hg (Apr 17, 9:55 pm)
Average62 °F67%29.88 "Hg
* Reported Apr 14 6:55 pm — Apr 29 6:55 pm, Hiroshima, Weather by CustomWeather, © 2017

Note: Actual official high and low records may vary slightly from our data, if they occured in-between our weather recording intervals... More about our weather records

Advertising

Hiroshima Weather History for the Previous 24 Hours

Scroll right to see more
 ConditionsComfort  
Time TempWeatherWind HumidityBarometerVisibility
6:55 pm
Sat, Apr 29
70 °FClear.5 mph20%29.78 "HgN/A
5:55 pm73 °FSunny.12 mph13%29.77 "HgN/A
4:55 pm75 °FSunny.15 mph14%29.75 "HgN/A
3:55 pm76 °FPassing clouds.9 mph17%29.73 "HgN/A
2:55 pm76 °FPassing clouds.12 mph19%29.72 "HgN/A
1:55 pm76 °FPassing clouds.16 mph21%29.72 "HgN/A
12:55 pm74 °FScattered clouds.10 mph45%29.72 "HgN/A
12:19 pm72 °FThunderstorms. Scattered clouds.14 mph50%29.72 "HgN/A
11:55 am71 °FScattered clouds.12 mph49%29.73 "HgN/A
10:55 am71 °FPassing clouds.9 mph47%29.75 "HgN/A
9:55 am68 °FPassing clouds.8 mph55%29.76 "HgN/A
8:55 am64 °FBroken clouds.7 mph61%29.76 "HgN/A
7:55 am62 °FBroken clouds.8 mph62%29.76 "HgN/A
6:55 am60 °FPartly sunny.No wind65%29.75 "HgN/A
5:55 am59 °FPartly sunny.5 mph67%29.75 "HgN/A
4:55 am60 °FPassing clouds.7 mph58%29.73 "HgN/A
3:55 am57 °FPassing clouds.No wind67%29.74 "HgN/A
2:55 am57 °FPassing clouds.3 mph64%29.75 "HgN/A
1:55 am57 °FPassing clouds.6 mph67%29.75 "HgN/A
12:55 am57 °FPassing clouds.5 mph69%29.76 "HgN/A
11:55 pm
Fri, Apr 28
58 °FPassing clouds.7 mph65%29.77 "HgN/A
10:55 pm61 °FPassing clouds.8 mph52%29.77 "HgN/A
9:55 pm60 °FPassing clouds.13 mph60%29.78 "HgN/A
8:55 pm61 °FPassing clouds.14 mph56%29.76 "HgN/A
Weather by CustomWeather, © 2017

See weather overviewHow to use our weather pages